Regional Weather Roundup
Issued by NWS New Orleans/Baton Rouge, LA

Home | Current Version | Previous Version | Text Only | Print | Product List | Glossary On
Versions: 1 2 3 4 5 6 7 8 9 10 11 12 13 14 15 16 17 18 19 20 21 22 23 24 25 26 27 28 29 30 31 32 33 34 35 36 37 38 39 40 41 42 43 44 45 46 47 48 49
440
ASUS44 KLIX 100710
RWRLIX
NEW ORLEANS REGIONAL WEATHER ROUNDUP
NATIONAL WEATHER SERVICE NEW ORLEANS LA
100 AM CST WED FEB 10 2016

NOTE: "FAIR" INDICATES FEW OR NO CLOUDS BELOW 12,000 FEET WITH NO
      SIGNIFICANT WEATHER AND/OR OBSTRUCTIONS TO VISIBILITY.
      SKY/WX - SKY CONDITION AND SIGNIFICANT WEATHER.
      TMP - AIR TEMPERATURE.     DP    - DEWPOINT TEMPERATURE.
      RH  - RELATIVE HUMIDITY.   PRES  - PRESSURE.
      HI  - HEAT INDEX.          WCI   - WIND CHILL INDEX.

*  THESE STATIONS ARE NOT NWS OR FAA STATIONS AND ARE NOT UNDER
   NWS QUALITY CONTROL.

LAZ038-040-048-061>063-065>067-069-100800-
SOUTHEAST LOUISIANA

CITY           SKY/WX    TMP DP  RH WIND       PRES   REMARKS
N.O. AUDUBON   NOT AVBL
N.O. INTL ARPT CLEAR     41  25  53 NW8       30.23S
N.O. LAKEFRONT CLEAR     50  31  48 NW22      30.23S
N.O. DOWNTOWN*   N/A     48  25  40 MISG      30.23S
RESERVE*         N/A     44  28  51 W7        30.24S
SLIDELL        PTCLDY    43  23  45 VRB6      30.22R
BATON ROUGE    CLEAR     44  24  45 MISG      30.25R
BOOTHVILLE     PTCLDY    45  37  73 W9        30.23S
BELLE CHASSE   PTCLDY    38  28  67 NW3       30.22F
BOGALUSA*        N/A     35  28  75 NW3       30.24R
GALLIANO*      SUNNY    N/A N/A N/A NW5       30.24R
NEW ROADS*       N/A     42  27  54 NW6       30.26R
GONZALES*        N/A     46  25  42 NW5       30.24S
HAMMOND*       PTCLDY    36  28  75 NW6       30.23R WCI  31
HOUMA*         CLEAR     42  32  67 W5        30.25R
PORT FOURCHON* SUNNY     50  36  57 NW8       30.25R

$$

MSZ070-080>082-100800-
SOUTHERN MISSISSIPPI

CITY           SKY/WX    TMP DP  RH WIND       PRES   REMARKS
MCCOMB         PTCLDY    37  22  54 NW9       30.22R WCI  30
GULFPORT       PTCLDY    38  23  55 NW6       30.20R WCI  33
BILOXI         CLEAR     43  25  49 NW6       30.19R
PASCAGOULA     CLEAR     39  23  52 NW3       30.20R

$$

COASTAL OBSERVATIONS
LAKE AND NEARSHORE STATIONS

STATION/POSITION TIME  TEMP    WIND        PRES    WAVE
                       AIR SEA DIR/SP/G            HT/PER
                 (UTC) (F)     (DEG/KT/KT) (MB)    (FT/S)
PASCAGOULA       0600   47     290/  9/ 13 1021.5
WAVELAND YACHT   0600   46 50  300/  9/ 12 1022.3
GRAND ISLE       0600   53 60  310/ 12/ 14 1023.4
NEW CANAL        0600   51 51  280/  5/  9 1022.5
SHELL BEACH      0600   46 51  260/  8/  9 1022.5

OFFSHORE STATIONS

STATION/POSITION TIME  TEMP    WIND        PRES    WAVE
                       AIR SEA DIR/SP/G            HT/PER
                 (UTC) (F)     (DEG/KT/KT) (MB)    (FT/S)

$$





USA.gov is the U.S. government's official web portal to all federal, state and local government web resources and services.